Wind_Speed
3 3 4 3 2 0 2 4 5 6 6 6 6 7 7 7 7 7 7 7 7 7 7 7 6 6 6 6 6 7 7 7 7 7 7 7 8 8 8 8 9 10 10
5 5 5 4 3 1 1 2 4 4 5 5 5 5 5 5 5 6 6 6 6 6 6 6 5 5 5 5 5 5 6 5 6 6 7 7 7 7 7 8 8 9 9
6 6 6 5 4 2 1 2 2 3 3 4 4 4 4 4 4 5 5 5 5 4 5 4 4 4 4 4 4 4 4 4 5 5 6 6 6 6 6 7 8 9 9
7 7 7 6 4 3 2 1 1 2 2 2 2 3 3 3 3 4 4 4 4 4 3 3 3 3 3 2 2 2 3 3 4 4 4 5 5 5 5 6 7 8 9
7 8 8 7 5 4 2 2 0 1 1 2 2 2 3 3 3 3 3 4 4 3 3 3 2 2 2 2 1 1 1 1 2 2 3 3 4 4 4 5 6 7 8
8 9 8 7 5 4 3 2 2 1 2 2 3 3 4 4 4 4 4 4 4 4 3 3 2 2 2 2 1 1 1 1 1 2 2 3 3 4 4 4 5 6 7
9 9 8 8 6 5 4 4 3 3 3 4 4 5 5 5 5 5 6 6 6 5 4 4 4 4 3 3 3 2 2 2 2 2 2 3 3 4 4 4 4 6 6
10 10 9 8 7 6 5 5 4 4 5 6 6 6 6 7 7 7 8 8 8 7 6 6 6 5 5 4 4 3 3 3 3 2 3 3 3 4 4 4 4 5 6
12 11 10 9 8 7 7 6 5 5 6 7 7 7 8 9 9 10 10 10 10 10 9 8 8 7 7 6 5 5 4 4 4 4 4 4 4 5 5 6 6 6 6
12 12 10 10 10 9 8 8 7 7 7 8 9 9 10 11 11 12 12 13 13 13 12 11 10 9 9 8 8 7 6 6 6 6 6 6 6 6 7 8 7 7 8
12 13 11 10 10 10 9 9 8 8 8 9 10 11 12 12 13 13 14 14 15 15 14 13 12 12 11 10 10 10 9 9 8 8 8 8 8 7 8 9 9 10 10
12 12 11 11 11 12 11 10 10 9 10 10 11 11 12 13 14 14 15 16 15 16 16 15 15 14 14 13 12 13 12 11 11 11 11 10 10 9 9 10 11 12 12
13 13 11 11 11 11 11 11 10 10 10 11 11 12 13 13 14 15 16 16 16 16 16 16 16 17 16 15 14 14 15 14 13 13 13 13 12 12 11 11 12 14 14
14 14 12 12 12 12 11 11 10 9 10 10 10 11 12 13 13 14 15 16 15 16 16 16 16 16 16 16 15 15 15 16 16 15 15 14 14 14 14 14 14 15 16
15 14 13 12 11 11 11 11 10 9 10 10 10 10 10 10 11 12 13 14 15 15 15 15 16 16 16 16 15 15 16 17 18 18 17 17 17 17 17 16 16 17 18
14 13 13 13 13 12 10 10 11 10 10 10 9 9 10 11 11 12 12 13 13 14 14 15 16 16 16 16 16 16 16 18 18 18 19 19 19 19 19 19 19 19 20
14 13 13 12 13 12 11 10 10 10 10 10 9 9 10 11 11 12 12 12 12 13 14 15 15 16 16 17 17 17 18 18 19 20 21 20 20 20 20 21 21 21 22
13 13 13 12 12 11 10 8 9 9 9 9 9 10 10 11 11 12 12 13 13 14 15 16 16 17 17 17 18 19 19 20 20 21 22 22 22 22 22 23 23 23 24
12 13 12 11 10 9 8 7 8 8 7 8 9 9 10 11 11 11 12 13 14 14 14 15 16 17 18 18 19 20 20 21 21 21 23 23 23 24 24 24 25 25 26
11 12 12 10 8 7 7 7 7 7 7 8 8 9 9 10 10 11 12 12 13 14 14 15 16 17 18 19 19 20 20 21 21 22 22 23 24 24 25 25 26 26 27
11 10 10 8 6 6 6 6 6 6 6 7 8 8 8 8 9 10 10 11 12 12 13 14 15 16 17 18 19 20 20 21 22 23 23 24 24 25 25 26 26 27 28
9 8 8 7 6 5 5 4 5 5 6 6 6 6 6 7 7 8 9 10 11 12 13 14 15 16 16 17 18 19 20 21 22 23 24 25 25 26 27 27 27 28 29
7 8 7 7 6 5 4 3 3 3 4 4 4 4 5 6 6 7 8 9 10 10 12 13 14 15 16 16 17 19 20 21 22 23 24 25 26 27 28 29 29 30 30
6 7 7 7 6 5 4 3 3 2 2 2 2 3 4 5 6 7 8 8 9 10 12 13 13 15 16 17 18 19 20 21 22 23 24 25 26 28 28 29 30 31 32
5 7 8 7 6 5 4 3 2 2 1 2 2 3 4 5 6 7 8 9 11 12 13 13 14 15 16 17 18 19 20 20 22 23 24 25 26 27 28 30 31 32 33
6 7 7 7 6 5 4 3 2 1 1 1 2 3 4 5 7 8 9 11 12 13 14 15 16 16 17 18 19 20 20 21 22 23 24 25 26 27 29 30 32 33 34
Wind_Direction
273 267 262 263 262 292 75 79 77 70 63 58 52 49 47 46 43 40 39 39 40 42 45 50 56 62 65 67 68 68 68 71 72 72 73 73 76 79 84 97 102 108 112
262 256 253 256 255 245 130 97 82 69 63 56 51 47 44 40 37 35 34 34 35 37 39 43 50 58 63 66 69 73 74 75 73 74 76 77 79 84 89 96 104 111 115
256 253 252 251 246 233 174 106 83 65 57 51 46 41 38 32 28 29 27 27 28 29 31 36 43 49 57 64 70 74 77 77 75 78 82 84 83 87 97 100 109 115 118
258 250 248 239 234 222 195 141 85 59 45 35 24 17 18 15 10 15 15 14 16 17 18 23 31 34 39 52 67 74 80 82 84 89 91 93 94 96 104 111 117 124 125
259 247 241 234 229 223 217 202 196 11 3 349 336 335 335 337 342 344 349 351 356 359 357 357 5 10 11 16 42 75 97 104 110 109 109 106 110 111 113 119 125 132 134
253 245 234 232 228 227 232 232 240 279 306 314 311 308 306 308 315 320 319 324 331 334 331 328 324 325 327 319 301 257 211 161 154 150 145 134 130 129 129 134 135 138 141
246 237 231 234 235 235 237 239 251 272 284 293 300 300 294 292 295 302 304 307 309 310 307 303 302 299 300 302 287 263 236 217 196 185 177 165 159 156 152 151 151 151 152
238 232 229 235 242 240 241 241 252 267 277 282 288 289 287 285 286 289 295 297 295 294 294 291 292 287 284 283 277 267 251 240 231 220 213 202 192 184 182 179 175 172 170
226 228 230 235 238 243 246 247 252 263 273 279 282 285 288 283 281 282 284 287 287 285 284 285 283 282 276 270 266 264 258 251 244 234 232 230 220 210 204 201 196 192 188
232 230 234 241 242 244 248 247 251 263 273 279 280 280 284 283 280 279 280 279 279 276 275 277 276 276 273 267 262 263 261 256 250 243 240 237 234 230 221 214 212 206 202
237 234 236 243 246 245 248 250 252 261 271 281 282 279 279 280 277 276 278 277 275 272 269 271 272 271 270 268 264 262 260 255 253 249 246 241 238 236 230 224 220 216 212
237 230 232 250 250 246 247 249 253 261 269 275 280 283 281 279 276 276 278 276 275 274 270 268 269 271 269 268 265 261 257 255 253 252 248 245 240 238 235 232 227 222 218
230 228 233 243 243 241 246 247 250 261 268 270 278 280 282 280 278 278 277 271 271 274 272 269 271 271 270 268 266 263 255 254 253 251 250 248 244 240 238 234 230 226 223
235 236 238 237 238 233 242 250 249 256 265 270 275 278 281 280 277 279 273 270 270 273 272 269 272 272 269 266 266 264 256 253 252 251 251 249 246 245 242 238 232 227 226
233 233 232 234 235 238 242 246 245 249 257 264 272 278 282 283 279 280 280 275 273 274 273 270 271 274 271 268 264 261 258 255 253 251 251 250 249 246 243 241 237 234 229
225 226 230 234 237 240 244 248 246 249 257 262 268 270 275 282 285 281 281 278 275 273 273 273 273 274 273 268 266 265 262 258 253 251 251 251 251 251 247 244 242 239 233
223 223 230 233 236 238 244 247 247 244 249 255 263 267 273 278 279 278 280 281 278 274 273 272 273 274 272 270 270 268 265 262 256 253 252 252 251 252 250 247 245 242 237
218 221 226 229 234 237 238 244 243 241 249 255 265 270 274 276 276 276 276 278 278 278 275 273 273 273 272 273 273 272 270 264 261 257 255 254 252 252 253 251 247 245 242
211 213 216 220 224 229 235 236 237 238 248 256 263 270 275 276 277 280 279 279 280 280 279 278 276 276 276 276 275 273 271 266 264 262 258 256 254 255 253 252 249 246 244
205 204 207 207 212 228 232 237 237 241 248 256 265 274 278 279 280 284 286 287 285 283 282 281 280 279 278 278 277 275 271 266 264 264 262 259 258 256 253 251 249 247 246
197 194 191 190 205 215 221 231 237 239 251 261 273 278 280 284 290 292 292 293 292 290 288 286 285 284 282 281 279 277 275 270 266 266 264 262 259 257 254 251 249 247 245
189 190 185 191 194 197 201 211 228 242 258 269 276 275 280 287 294 300 303 303 301 297 295 293 292 290 289 288 285 281 279 275 271 268 265 263 261 258 255 253 251 250 247
182 185 186 185 187 184 183 194 223 247 260 271 277 281 288 296 306 315 318 316 313 309 304 302 299 297 295 293 291 288 285 280 276 272 268 265 263 260 257 254 253 251 249
180 189 183 183 183 179 177 191 212 231 256 270 284 302 317 327 329 329 328 326 323 319 315 311 307 304 301 298 296 293 289 284 280 276 272 269 266 264 261 258 255 252 249
162 174 167 173 173 178 184 190 196 214 241 272 303 324 332 333 333 333 333 332 329 324 319 315 311 307 303 301 298 295 292 288 284 280 277 274 269 266 263 260 257 254 251
152 159 167 174 171 174 177 176 179 205 241 294 319 331 334 333 331 330 330 329 328 325 322 319 317 313 309 306 303 299 295 292 288 284 281 278 274 269 265 262 259 256 253
Height
5889 5889 5890 5890 5890 5889 5889 5889 5890 5890 5891 5892 5892 5893 5893 5894 5894 5894 5895 5895 5895 5895 5895 5896 5896 5896 5896 5896 5896 5896 5896 5896 5896 5896 5896 5896 5896 5895 5895 5896 5896 5896 5896
5889 5889 5889 5889 5889 5889 5889 5889 5890 5890 5891 5891 5892 5893 5893 5894 5894 5895 5895 5895 5895 5896 5896 5896 5896 5896 5896 5896 5896 5896 5897 5897 5897 5897 5897 5897 5897 5897 5897 5897 5897 5897 5898
5887 5888 5888 5888 5888 5888 5888 5888 5889 5890 5890 5891 5892 5892 5893 5894 5894 5894 5895 5895 5895 5896 5896 5896 5896 5896 5896 5896 5897 5897 5897 5897 5897 5897 5897 5898 5898 5898 5898 5898 5898 5899 5899
5886 5886 5886 5887 5887 5887 5887 5888 5888 5889 5890 5890 5891 5891 5892 5893 5894 5894 5894 5895 5895 5895 5895 5896 5896 5896 5896 5897 5897 5897 5897 5897 5897 5898 5898 5898 5899 5899 5899 5899 5900 5900 5900
5884 5884 5885 5885 5885 5886 5886 5887 5887 5888 5889 5889 5890 5890 5891 5892 5892 5893 5894 5894 5894 5895 5895 5895 5895 5896 5896 5897 5897 5897 5897 5898 5898 5898 5898 5899 5899 5900 5900 5900 5901 5901 5902
5882 5882 5883 5883 5884 5884 5885 5886 5886 5887 5887 5888 5888 5889 5890 5890 5891 5892 5892 5893 5893 5894 5894 5895 5895 5895 5895 5896 5897 5897 5897 5897 5898 5898 5899 5899 5900 5900 5901 5901 5902 5902 5902
5880 5881 5881 5882 5882 5883 5883 5884 5885 5886 5886 5886 5887 5887 5888 5889 5889 5890 5891 5892 5892 5892 5893 5893 5894 5894 5894 5895 5896 5896 5897 5897 5898 5898 5898 5899 5900 5900 5901 5902 5902 5903 5903
5878 5879 5879 5880 5881 5881 5882 5882 5883 5884 5885 5885 5885 5886 5886 5887 5887 5888 5889 5889 5890 5891 5891 5892 5892 5893 5893 5894 5894 5895 5896 5896 5897 5897 5898 5898 5899 5900 5901 5902 5902 5903 5904
5875 5876 5877 5878 5879 5880 5880 5880 5881 5882 5882 5883 5883 5884 5884 5885 5885 5886 5886 5887 5888 5888 5889 5890 5891 5891 5892 5892 5893 5894 5895 5895 5896 5896 5897 5898 5898 5899 5900 5901 5902 5903 5904
5872 5874 5875 5875 5876 5877 5878 5878 5879 5880 5880 5881 5881 5881 5882 5882 5883 5883 5884 5884 5885 5886 5886 5887 5888 5889 5890 5891 5891 5892 5893 5894 5894 5895 5896 5896 5897 5898 5899 5900 5901 5902 5903
5870 5871 5872 5873 5873 5874 5875 5876 5876 5877 5878 5879 5879 5879 5879 5880 5880 5881 5881 5881 5882 5882 5883 5884 5885 5886 5887 5888 5890 5890 5891 5892 5892 5893 5894 5895 5896 5897 5897 5898 5900 5901 5902
5867 5868 5869 5870 5870 5871 5872 5873 5874 5875 5875 5876 5876 5876 5876 5877 5877 5878 5878 5878 5878 5879 5880 5881 5882 5883 5884 5885 5887 5888 5888 5889 5890 5891 5892 5893 5894 5895 5896 5897 5898 5899 5901
5863 5865 5866 5867 5867 5868 5870 5870 5871 5872 5872 5873 5873 5873 5874 5874 5875 5875 5875 5875 5875 5876 5877 5877 5878 5879 5881 5882 5883 5884 5885 5886 5887 5888 5889 5890 5891 5892 5893 5894 5896 5897 5899
5860 5861 5862 5863 5864 5864 5866 5867 5868 5869 5870 5870 5870 5871 5871 5872 5872 5872 5871 5872 5873 5873 5874 5874 5875 5876 5877 5878 5879 5881 5882 5883 5884 5885 5886 5887 5888 5890 5891 5892 5893 5894 5896
5856 5858 5859 5861 5862 5863 5864 5865 5865 5866 5867 5868 5868 5869 5869 5869 5870 5869 5869 5869 5870 5870 5871 5871 5872 5873 5874 5875 5875 5877 5878 5879 5880 5881 5883 5884 5885 5886 5888 5889 5890 5891 5893
5853 5855 5857 5858 5860 5861 5862 5862 5863 5863 5865 5865 5866 5866 5867 5867 5867 5868 5868 5867 5867 5868 5868 5869 5869 5870 5870 5871 5872 5873 5874 5875 5876 5877 5879 5880 5881 5882 5884 5885 5887 5888 5889
5850 5852 5854 5856 5857 5858 5859 5860 5860 5861 5862 5863 5864 5864 5865 5865 5866 5866 5866 5865 5865 5865 5866 5866 5866 5867 5867 5868 5868 5869 5870 5871 5872 5873 5874 5876 5877 5878 5880 5881 5883 5884 5886
5846 5848 5851 5853 5855 5856 5857 5858 5859 5860 5861 5861 5862 5862 5862 5863 5863 5863 5863 5863 5863 5863 5863 5863 5864 5864 5864 5864 5865 5865 5866 5866 5867 5868 5869 5871 5872 5874 5875 5877 5878 5879 5881
5843 5846 5849 5851 5853 5854 5856 5856 5857 5858 5859 5859 5860 5860 5860 5860 5861 5861 5861 5861 5860 5860 5860 5860 5861 5861 5861 5861 5861 5861 5862 5862 5863 5863 5864 5866 5867 5868 5870 5871 5873 5874 5876
5842 5844 5847 5850 5851 5853 5854 5855 5856 5856 5857 5858 5858 5858 5858 5858 5858 5858 5858 5858 5857 5857 5857 5857 5857 5857 5857 5857 5857 5857 5857 5858 5858 5859 5860 5860 5861 5862 5864 5865 5867 5868 5870
5841 5843 5846 5848 5849 5851 5852 5853 5854 5855 5856 5856 5857 5857 5857 5856 5856 5856 5856 5855 5855 5855 5854 5854 5854 5854 5853 5853 5853 5853 5853 5853 5853 5854 5854 5855 5856 5856 5858 5859 5861 5862 5864
5841 5843 5845 5847 5848 5850 5851 5852 5853 5853 5854 5855 5855 5855 5855 5855 5855 5854 5854 5853 5853 5852 5852 5851 5851 5850 5849 5849 5849 5848 5848 5848 5848 5848 5848 5849 5850 5850 5851 5852 5854 5856 5857
5841 5843 5844 5846 5847 5849 5850 5851 5852 5853 5853 5854 5854 5854 5854 5853 5853 5852 5852 5851 5851 5850 5849 5848 5847 5847 5846 5845 5844 5844 5843 5842 5842 5843 5842 5843 5843 5844 5845 5846 5847 5849 5851
5840 5842 5844 5845 5847 5849 5850 5850 5851 5852 5852 5853 5853 5853 5852 5852 5851 5851 5850 5849 5849 5848 5847 5846 5845 5843 5842 5841 5840 5839 5838 5837 5837 5837 5837 5836 5836 5837 5838 5839 5840 5841 5843
5840 5841 5843 5845 5847 5848 5849 5850 5850 5851 5851 5852 5852 5851 5851 5851 5850 5849 5849 5848 5846 5845 5844 5843 5841 5840 5839 5837 5836 5834 5833 5832 5831 5831 5830 5830 5830 5830 5830 5831 5832 5833 5835
5840 5841 5843 5844 5846 5847 5848 5849 5850 5850 5850 5850 5850 5850 5850 5849 5849 5848 5847 5846 5844 5843 5841 5840 5838 5836 5835 5833 5831 5830 5828 5827 5826 5825 5824 5823 5823 5823 5823 5823 5824 5825 5826